Tracking 20621 objects as of 30-Mar-2020
HD Live streaming from Space Station
objects crossing your sky now

SL-8 R/B

Track SL-8 R/B now!
10-day predictions


NORAD ID: 11304
Int'l Code: 1979-024J
Perigee: 1,466.7 km
Apogee: 1,696.1 km
Inclination: 74.0 °
Period: 117.6 minutes
Semi major axis: 7952 km
RCS: 6.3043 m2 (large)
Launch date: March 15, 1979
Source: Commonwealth of Independent States (former USSR) (CIS)
Launch site: PLESETSK MISSILE AND SPACE COMPLEX (PKMTR)

Note: This is a ROCKET BODY
aabbcc
Your satellite tracking list
Your tracking list is empty




NASA's NSSDC Master Catalog

Two Line Element Set (TLE):
1 11304U 79024J   20090.16339291 +.00000026 +00000-0 +35411-3 0  9991
2 11304 074.0427 339.4609 0144242 035.9917 325.0729 12.24203682834058
Source of the keplerian elements: AFSPC